Location: Harwich
(41.7160°N, 69.9939°W)
Time: 14:12:02
(UTC+01:00)

A-11 Canister half - Pass Details

Date: 03 December 2023
Orbit: 1526 x 1682 km, 47.3° (Epoch: 01 March)

Event Time Altitude Azimuth Distance (km) Brightness Sun altitude
Rises 23:59:38 0° 209° (SSW) 4,908 12.3 -19.9°
Reaches altitude 10° 00:02:59 10° 203° (SSW) 3,930 11.6 -20.5°
Maximum altitude 00:12:18 44° 136° (SE) 2,209 9.5 -22.2°
Enters shadow 00:15:51 33° 94° (E) 2,537 9.6 -22.9°
Drops below altitude 10° 00:21:34 10° 69° (ENE) 3,918 - -23.9°
Sets 00:24:53 0° 63° (ENE) 4,893 - -24.5°
